Stations météo

réclame
Mon MeteoGroup
Cap Ferret, France (7500): Température de l'air & dewpoint: 16.03.2019 07:00:00 - 22.03.2019 07:00:00 (CET)Cap Ferret, France (7500): Vitesse du vent & gusts: 16.03.2019 07:00:00 - 22.03.2019 07:00:00 (CET)Cap Ferret, France (7500): Direction du vent: 16.03.2019 07:00:00 - 22.03.2019 07:00:00 (CET)Cap Ferret, France (7500): reduced air pressure: 16.03.2019 07:00:00 - 22.03.2019 07:00:00 (CET)Cap Ferret, France (7500): visibility: 16.03.2019 07:00:00 - 22.03.2019 07:00:00 (CET)Cap Ferret, France (7500): Quantités de précipitations: 16.03.2019 07:00:00 - 22.03.2019 07:00:00 (CET)
Date & Time tt [°C] td [°C] ff [km/h] ff [knt] fx [km/h] fx [knt] dd ppp [hPa] vv [km] rr [mm]
22.03.2019 07:00:00 3,7 2,7 6 3 18 10 ESE 1028,0 10 0,0
22.03.2019 06:00:00 3,5 2,3 10 5 16 9 SE 1027,8 - 0,0
22.03.2019 05:00:00 4,0 2,8 9 5 16 8 SE 1027,8 - 0,0
22.03.2019 04:00:00 5,1 4,1 14 7 18 10 ESE 1027,8 15 0,0
22.03.2019 03:00:00 4,0 2,8 5 3 9 5 E 1028,0 - 0,0
22.03.2019 02:00:00 4,8 3,6 8 4 13 7 E 1028,3 - 0,0
22.03.2019 01:00:00 5,5 4,1 6 3 10 5 ENE 1028,4 15 0,0
22.03.2019 00:00:00 6,4 5,0 9 5 12 7 NE 1028,6 - 0,0
21.03.2019 23:00:00 6,7 5,2 11 6 14 8 NE 1028,7 - 0,0
21.03.2019 22:00:00 7,2 5,3 8 4 9 5 NNE 1028,6 10 0,0
21.03.2019 21:00:00 8,2 5,8 3 2 6 4 ESE 1028,6 - 0,0
21.03.2019 20:00:00 10,1 6,8 3 2 7 4 SSE 1028,2 - 0,0
21.03.2019 19:00:00 13,3 8,1 3 2 21 12 NW 1027,9 10 0,0
21.03.2019 18:00:00 15,2 8,2 11 6 29 16 NNW 1027,7 - 0,0
21.03.2019 17:00:00 15,3 8,1 19 11 31 17 NW 1027,9 - 0,0
21.03.2019 16:00:00 15,9 8,4 19 11 29 16 NW 1028,2 15 0,0
21.03.2019 15:00:00 15,9 8,4 19 10 31 17 NW 1028,9 - 0,0
21.03.2019 14:00:00 15,5 7,8 21 11 29 16 NW 1029,6 - 0,0
21.03.2019 13:00:00 14,1 6,7 16 8 24 13 WNW 1030,3 15 0,0
21.03.2019 12:00:00 14,1 5,4 10 6 21 11 NE 1030,6 - 0,0
21.03.2019 11:00:00 12,7 5,6 11 6 22 12 NE 1031,1 - 0,0
21.03.2019 10:00:00 10,9 5,4 16 9 25 14 NE 1031,2 15 0,0
21.03.2019 09:00:00 9,9 5,9 16 9 28 15 NE 1031,4 - 0,0
21.03.2019 08:00:00 8,5 5,4 16 9 29 15 NNE 1031,2 - 0,0
21.03.2019 07:00:00 7,9 5,2 16 9 25 14 NE 1031,1 15 0,0
21.03.2019 06:00:00 8,1 5,2 17 9 28 15 NNE 1030,9 - 0,0
21.03.2019 05:00:00 8,6 5,5 16 8 27 15 NNE 1030,6 - 0,0
21.03.2019 04:00:00 8,8 5,9 13 7 25 14 NNE 1030,7 13 0,0
21.03.2019 03:00:00 8,9 6,3 17 9 27 14 NNE 1031,1 - 0,0
21.03.2019 02:00:00 9,1 6,7 16 9 26 14 NE 1031,6 - 0,0
21.03.2019 01:00:00 9,5 6,6 11 6 22 12 NE 1031,8 13 0,0
21.03.2019 00:00:00 10,4 6,9 12 6 27 15 NNE 1032,3 - 0,0
20.03.2019 23:00:00 10,3 7,0 13 7 28 15 N 1032,5 - 0,0
20.03.2019 22:00:00 10,6 7,7 16 9 37 20 N 1032,6 13 0,0
20.03.2019 21:00:00 10,8 7,5 19 11 40 22 N 1032,7 - 0,0
20.03.2019 20:00:00 11,2 7,1 23 13 43 23 N 1032,3 - 0,0
20.03.2019 19:00:00 11,6 6,1 24 13 45 25 N 1032,2 13 0,0
20.03.2019 18:00:00 12,5 5,2 26 14 48 26 NNW 1031,7 - 0,0
20.03.2019 17:00:00 13,3 5,4 28 15 50 27 N 1031,7 - 0,0
20.03.2019 16:00:00 13,9 5,5 28 15 50 27 NNW 1032,0 15 0,0
20.03.2019 15:00:00 14,5 5,8 25 13 42 23 NNW 1032,4 - 0,0
20.03.2019 14:00:00 14,3 6,1 21 12 36 19 NNW 1033,1 - 0,0
20.03.2019 13:00:00 14,0 2,2 12 7 27 14 NE 1033,5 15 0,0
20.03.2019 12:00:00 13,8 2,7 14 8 29 16 NE 1033,9 - 0,0
20.03.2019 11:00:00 12,8 4,2 9 5 18 10 NNE 1034,1 - 0,0
20.03.2019 10:00:00 10,8 5,3 13 7 19 10 NE 1034,1 20 0,0
20.03.2019 09:00:00 9,4 5,6 13 7 24 13 NE 1033,7 - 0,0
20.03.2019 08:00:00 8,2 5,5 12 7 23 13 NE 1033,3 - 0,0
20.03.2019 07:00:00 7,0 4,3 16 8 25 13 NE 1032,9 - 0,0
20.03.2019 06:00:00 7,2 4,7 14 8 28 15 NE 1032,3 - 0,0
20.03.2019 05:00:00 7,6 5,2 16 9 26 14 NE 1032,1 - 0,0
20.03.2019 04:00:00 7,7 5,7 15 8 26 14 NE 1032,3 13 0,0
20.03.2019 03:00:00 7,7 5,8 15 8 29 16 NNE 1032,5 - 0,0
20.03.2019 02:00:00 7,7 5,7 17 9 29 15 NNE 1032,7 - 0,0
20.03.2019 01:00:00 8,1 5,7 16 9 29 15 NE 1032,6 13 0,0
20.03.2019 00:00:00 8,6 5,9 14 7 29 15 NNE 1032,9 - 0,0
19.03.2019 23:00:00 8,7 5,1 14 8 26 14 NNE 1032,5 - 0,0
19.03.2019 22:00:00 8,8 5,2 14 8 27 14 N 1032,0 13 0,0
19.03.2019 21:00:00 8,9 5,3 13 7 28 15 N 1031,5 - 0,0
19.03.2019 20:00:00 9,4 5,6 16 9 31 17 N 1031,0 - 0,0
19.03.2019 19:00:00 10,3 5,7 18 10 39 21 N 1030,5 13 0,0
19.03.2019 18:00:00 11,2 5,3 20 11 37 20 N 1029,8 - 0,0
19.03.2019 17:00:00 12,2 5,6 21 11 40 21 NNW 1029,6 - 0,0
19.03.2019 16:00:00 12,8 5,5 22 12 38 20 NNW 1029,6 15 0,0
19.03.2019 15:00:00 12,5 6,1 20 11 36 20 NNW 1029,7 - 0,0
19.03.2019 14:00:00 11,9 5,5 18 10 29 16 NNW 1029,8 - 0,0
19.03.2019 13:00:00 11,0 6,5 9 5 24 13 NW 1030,1 15 0,0
19.03.2019 12:00:00 10,7 6,1 13 7 19 10 NNW 1030,1 - 0,0
19.03.2019 11:00:00 11,8 7,1 9 5 19 10 N 1029,7 - 0,0
19.03.2019 10:00:00 10,1 7,9 10 6 21 12 NE 1029,6 15 0,0
19.03.2019 09:00:00 8,8 7,4 11 6 22 12 NNE 1028,9 - 0,0
19.03.2019 08:00:00 8,4 7,3 10 5 26 14 NNE 1028,3 - 0,0
19.03.2019 07:00:00 7,1 6,0 17 9 28 15 NE 1027,8 15 0,0
19.03.2019 06:00:00 7,2 6,1 15 8 29 16 NNE 1027,6 - 0,0
19.03.2019 05:00:00 7,3 6,2 14 8 26 14 NNE 1027,2 - 0,0
19.03.2019 04:00:00 7,6 6,5 12 6 19 10 N 1027,0 8 0,0
19.03.2019 03:00:00 7,9 6,7 12 7 54 29 N 1027,0 - 1,2
19.03.2019 02:00:00 8,4 7,0 16 9 31 17 N 1027,3 - 0,6
19.03.2019 01:00:00 8,5 7,1 11 6 29 16 N 1027,5 8 0,4
19.03.2019 00:00:00 8,4 6,9 18 10 43 23 NNW 1027,9 - 1,6
18.03.2019 23:00:00 8,9 6,7 21 12 43 23 NW 1028,0 - 1,0
18.03.2019 22:00:00 9,4 6,8 19 10 37 20 NW 1028,1 6 0,4
18.03.2019 21:00:00 9,9 6,2 26 14 47 25 NNW 1028,0 - 0,0
18.03.2019 20:00:00 10,8 6,0 24 13 37 20 WNW 1027,6 - 0,0
18.03.2019 19:00:00 11,0 5,7 25 13 37 20 W 1027,5 15 0,0
18.03.2019 18:00:00 12,0 4,7 23 13 36 19 WNW 1027,3 - 0,0
18.03.2019 17:00:00 12,8 5,0 23 12 35 19 WNW 1027,5 - 0,0
18.03.2019 16:00:00 13,9 6,3 22 12 31 17 W 1027,7 15 0,0
18.03.2019 15:00:00 15,0 6,0 19 10 32 18 W 1027,8 - 0,0
18.03.2019 14:00:00 14,5 5,3 20 11 29 16 WNW 1028,3 - 0,0
18.03.2019 13:00:00 13,4 6,0 12 7 23 12 W 1028,5 15 0,0
18.03.2019 12:00:00 12,8 5,0 18 10 34 18 W 1028,7 - 0,0
18.03.2019 11:00:00 13,5 5,4 14 8 27 15 N 1028,6 - 0,0
18.03.2019 10:00:00 13,0 5,4 11 6 22 12 NW 1028,3 15 0,0
18.03.2019 09:00:00 11,9 4,6 14 8 25 13 NNW 1027,7 - 0,0
18.03.2019 08:00:00 10,0 4,4 12 6 29 16 NNW 1026,9 - 0,0
18.03.2019 07:00:00 8,9 3,9 16 9 29 15 NW 1026,6 15 0,0
18.03.2019 06:00:00 8,8 3,2 16 9 29 16 NNW 1026,2 - 0,0
18.03.2019 05:00:00 8,9 3,7 15 8 31 17 NNW 1025,8 - 0,0
18.03.2019 04:00:00 9,2 4,2 18 10 31 17 NNW 1025,6 10 0,0
18.03.2019 03:00:00 9,1 3,5 19 10 45 25 NNW 1025,5 - 0,0
18.03.2019 02:00:00 9,6 4,4 30 16 48 26 NW 1025,3 - 0,0
18.03.2019 01:00:00 9,1 5,8 21 12 50 27 NW 1025,5 10 0,2
18.03.2019 00:00:00 8,9 5,8 23 12 42 23 NW 1025,6 - 0,0
17.03.2019 23:00:00 8,8 6,4 22 12 50 27 NW 1025,3 - 0,2
17.03.2019 22:00:00 8,6 5,7 31 17 76 41 WNW 1025,3 13 0,6
17.03.2019 21:00:00 10,6 4,5 39 21 50 27 W 1024,4 - 0,0
17.03.2019 20:00:00 10,5 4,0 31 17 46 25 W 1023,9 - 0,0
17.03.2019 19:00:00 10,6 3,6 34 19 48 26 W 1023,6 15 0,0
17.03.2019 18:00:00 11,3 4,5 32 17 48 26 WNW 1023,1 - 0,0
17.03.2019 17:00:00 12,4 4,8 28 15 49 26 WNW 1022,7 - 0,0
17.03.2019 16:00:00 13,4 4,8 30 16 50 27 WNW 1022,6 15 0,0
17.03.2019 15:00:00 13,8 5,9 32 17 53 29 W 1022,2 - -
17.03.2019 14:00:00 13,7 5,6 30 16 57 31 NW 1021,8 - 0,0
17.03.2019 13:00:00 13,2 5,1 36 20 55 30 WNW 1021,3 - 0,0
17.03.2019 12:00:00 12,7 6,7 29 15 51 28 NW 1020,6 - 0,0
17.03.2019 11:00:00 11,2 8,1 32 17 53 28 WNW 1019,7 - 0,0
17.03.2019 10:00:00 10,1 8,5 28 15 68 37 NW 1018,7 12 0,0
17.03.2019 09:00:00 9,9 8,5 32 17 55 30 WNW 1017,8 - 0,8
17.03.2019 08:00:00 11,4 9,5 38 21 70 38 WNW 1016,2 - 0,2
17.03.2019 07:00:00 12,4 9,6 48 26 63 34 W 1015,1 - 0,0
17.03.2019 06:00:00 12,0 9,4 36 20 61 33 WSW 1015,1 - 0,0
17.03.2019 05:00:00 12,2 8,8 34 19 58 31 WSW 1014,7 - 0,0
17.03.2019 04:00:00 11,8 8,8 31 17 54 29 WSW 1014,6 10 0,0
17.03.2019 03:00:00 12,2 8,8 37 20 45 24 W 1015,2 - 0,0
17.03.2019 02:00:00 12,0 8,8 33 18 46 25 W 1015,3 - 0,0
17.03.2019 01:00:00 11,8 9,2 30 16 43 23 W 1015,5 10 0,0
17.03.2019 00:00:00 11,2 9,8 35 19 49 26 W 1015,5 - 0,0
16.03.2019 23:00:00 11,1 10,0 26 14 39 21 WNW 1015,4 - 0,0
16.03.2019 22:00:00 11,2 9,9 17 9 25 14 NNW 1015,1 10 0,0
16.03.2019 21:00:00 9,5 7,3 10 5 14 7 NNE 1014,3 - 0,0
16.03.2019 20:00:00 11,1 8,1 4 2 10 5 E 1014,1 - 0,0
16.03.2019 19:00:00 13,8 9,6 10 6 25 13 NNW 1014,6 10 0,0
16.03.2019 18:00:00 17,1 8,2 3 2 9 5 ESE 1014,6 - 0,0
16.03.2019 17:00:00 18,8 7,6 3 2 9 5 NE 1015,4 - 0,0
16.03.2019 16:00:00 18,9 8,5 4 2 11 6 NNE 1016,0 15 0,0
16.03.2019 15:00:00 18,5 10,1 7 4 12 6 WNW 1017,0 - 0,0
16.03.2019 14:00:00 17,1 7,7 4 2 19 10 ENE 1018,2 - 0,0
16.03.2019 13:00:00 15,2 7,7 9 5 21 11 ESE 1019,6 13 0,0
16.03.2019 12:00:00 14,7 7,5 8 4 20 11 S 1020,6 - 0,0
16.03.2019 11:00:00 13,7 6,8 7 4 22 12 SSE 1021,4 - 0,0
16.03.2019 10:00:00 13,5 7,0 8 4 20 11 S 1022,0 13 0,0
16.03.2019 09:00:00 11,7 7,4 9 5 18 10 SE 1022,4 - 0,0
16.03.2019 08:00:00 10,7 6,1 7 4 17 9 SW 1022,8 - 0,0
16.03.2019 07:00:00 11,0 6,1 10 6 19 11 SSW 1023,2 - 0,0

tt = Température de l'air
td = dewpoint
ff = Vitesse du vent
fx = gusts
dd = Direction du vent
ppp = reduced air pressure
vv = visibility
rr = Quantités de précipitations

stations d'obs. à proximité